Simultaneous Nadir Overpasses (SNOs) Predictions

Prediction of SNOs between NOAA-19 and NPP Satellite Orbit:

Table of predicted SNOs for the next 14.0 days since TLE Epoch: 7/25/2014
Index Date (NOAA-19) Time (NOAA-19) Lat,Lon (NOAA-19) SZA (NOAA-19 ) Date (NPP) Time (NPP) Lat,Lon (NPP) SZA (NPP ) Distance(km) Time Diff (sec)
1 08/06/2014 11:48:21 -81.02, 128.93 111.60 08/06/2014 11:49:20 -81.02, 129.01 111.64 1.34 59
2 08/06/2014 12:39:17 81.02, -63.61 68.39 08/06/2014 12:40:05 81.02, -63.68 68.37 1.31 48
3 08/06/2014 13:30:23 -81.01, 103.99 111.66 08/06/2014 13:30:49 -81.01, 104.01 111.68 0.48 26
4 08/06/2014 14:21:19 81.01, -88.55 68.33 08/06/2014 14:21:34 81.01, -88.68 68.34 2.20 15
5 08/06/2014 15:12:26 -81.01, 78.67 111.67 08/06/2014 15:12:19 -81.01, 78.64 111.66 0.46 7
6 08/06/2014
